Location: Unspecified
(0.0000°N, 0.0000°E)
Time: 13:34:28
(UTC+01:00)

Cosmos 1833 Rocket - Visible Passes

Search period start: 06 March 2015 00:00
Search period end: 16 March 2015 00:00
Orbit: 834 x 839 km, 71.0° (Epoch: 05 March)

Date Brightness Start Highest point End Pass type
(mag) Time Alt. Az. Time Alt. Az. Time Alt. Az.
06 Mar 2.5 20:50:42 10° SSW 20:56:20 79° ESE 20:56:42 75° ENE visible
07 Mar 2.5 20:34:07 10° S 20:39:43 70° ESE 20:42:21 32° NNE visible
08 Mar 2.6 20:17:33 10° S 20:23:06 62° ESE 20:28:28 11° NNE visible
09 Mar 2.7 20:00:59 10° S 20:06:29 55° ESE 20:11:59 10° NNE visible
10 Mar 2.9 19:44:27 10° S 19:49:52 49° ESE 19:55:17 10° NNE visible
10 Mar 5.7 21:32:30 10° W 21:33:48 10° WNW 21:34:34 10° WNW visible
11 Mar 6.0 06:47:49 10° NE 06:49:25 12° ENE 06:51:31 10° E visible
11 Mar 3.0 19:27:55 10° S 19:33:15 44° ESE 19:38:35 10° NE visible
11 Mar 5.6 21:14:49 10° W 21:17:09 12° WNW 21:19:01 10° NW visible
12 Mar 5.6 20:57:32 10° WSW 21:00:30 14° WNW 21:03:02 10° NW visible
13 Mar 5.5 20:40:26 10° WSW 20:43:51 16° WNW 20:46:54 10° NW visible
14 Mar 5.5 20:23:24 10° WSW 20:27:12 18° WNW 20:30:40 10° NNW visible
15 Mar 5.4 20:06:27 10° WSW 20:10:33 20° WNW 20:14:23 10° NNW visible
